User: anonymous   Login
Location: Oshawa
(43.9000°N, 78.8670°W)
Time: 17:46:29
(UTC-04:00)
Language:

CZ-4C R/B - Orbit

View from above orbital plane
View from above orbital plane
View from above satellite
View from above satellite

Ground track
Ground track

The orbit data is extracted from the following two-line orbital elements,

1 32290U 07055B   15244.88742850 +.00003077 +00000-0 +10264-3 0  9994
2 32290 097.5400 329.1371 0074964 297.8853 153.9525 15.29211303431534
Epoch (UTC): 01 September 2015 21:17:53
Eccentricity: 0.0074964
inclination: 97.5400°
perigee height: 427 km
apogee height: 529 km
right ascension of ascending node: 329.1371°
argument of perigee: 297.8853°
revolutions per day: 15.29211303
mean anomaly at epoch: 153.9525°
orbit number at epoch: 43153

The dashed part of the orbit path shows where the satellite is in the earth's shadow,  

DLR